Cosmos 2112 Rocket - Orbit

View from above orbital plane
View from above orbital plane
View from above satellite
View from above satellite

Ground track
Ground track

The orbit data is extracted from the following two-line orbital elements,

1 21015U 90111B   13142.84258132  .00000131  00000-0  54647-4 0  3736
2 21015 074.0516 341.6248 0022699 256.1557 201.2314 14.35377915272819
Epoch (UTC): 22 May 2013 20:13:19
Eccentricity: 0.0022699
inclination: 74.0516°
perigee height: 757 km
apogee height: 790 km
right ascension of ascending node: 341.6248°
argument of perigee: 256.1557°
revolutions per day: 14.35377915
mean anomaly at epoch: 201.2314°
orbit number at epoch: 27281

The dashed part of the orbit path shows where the satellite is in the earth's shadow,  

Developed and maintained by Chris Peat, Heavens-Above GmbH. Please read the updated FAQ before sending e-mail. Imprint. DLR